This demonstration page uses our WeatherBlox Daily Observations layout. Learn more.

Left ArrowRight Arrow

Hourly Observations for April 23, 2017

Temp ( °F °C ) Dew Point ( °F °C ) Humidity (%) Winds ( mph kmh ) Pressure ( in mb ) Visibility ( mi km ) Precip ( " mm )
12:53 am 00:53 Clear 46 7.8 41 5 83 83 E 22 35 29.92 1013 10 16 0.00 0.00
1:53 am 01:53 Partly Cloudy 45 7.2 41 5 86 86 E 21 33 29.89 1012 10 16 0.00 0.00
2:00 am 02:00 Mostly Cloudy 45 7 41 5 87 87 E 24 39 29.91 1013 10 16 0.00 0.00
2:53 am 02:53 Cloudy 44 6.7 41 5 89 89 E 24 39 29.88 1012 10 16 0.00 0.00
3:53 am 03:53 Cloudy 43 6.1 40 4.4 89 89 E 23 37 29.85 1011 10 16 0.00 0.00
4:09 am 04:09 Cloudy 43 6.1 40 4.4 89 89 E 21 33 29.85 1011 10 16 0.00 0.00
4:53 am 04:53 Cloudy 42 5.6 39 3.9 89 89 E 21 33 29.85 1011 10 16 0.00 0.00
5:53 am 05:53 Cloudy 41 5 38 3.3 89 89 E 18 30 29.84 1011 10 16 0.00 0.00
6:53 am 06:53 Cloudy 40 4.4 38 3.3 93 93 E 22 35 29.85 1011 10 16 0.00 0.00
7:53 am 07:53 Cloudy 40 4.4 37 2.8 89 89 E 24 39 29.84 1011 10 16 0.00 0.00
8:53 am 08:53 Mostly Cloudy 41 5 37 2.8 86 86 E 22 35 29.84 1011 10 16 0.00 0.00
9:31 am 09:31 Partly Cloudy 43 6.1 38 3.3 82 82 E 20 31 29.83 1010 10 16 0.00 0.00
9:53 am 09:53 Mostly Sunny 43 6.1 38 3.3 82 82 E 21 33 29.82 1010 10 16 0.00 0.00
10:53 am 10:53 Partly Cloudy 46 7.8 39 3.9 77 77 E 18 30 29.80 1009 10 16 0.00 0.00
11:53 am 11:53 Mostly Cloudy 49 9.4 40 4.4 71 71 ENE 13 20 29.80 1009 10 16 0.00 0.00
12:53 pm 12:53 Cloudy 49 9.4 40 4.4 71 71 NE 7 11 29.78 1009 10 16 0.00 0.00
1:53 pm 13:53 Mostly Cloudy 49 9.4 40 4.4 71 71 ENE 9 15 29.77 1008 10 16 0.00 0.00
2:53 pm 14:53 Cloudy 50 10 41 5 71 71 ENE 8 13 29.76 1008 10 16 0.00 0.00
3:53 pm 15:53 Cloudy with Light Rain 47 8.3 42 5.6 83 83 NE 12 19 29.75 1007 9 14 0.00 0.03
4:38 pm 16:38 Cloudy with Light Rain 46 8 43 6 87 87 NE 12 19 29.74 1007 5 8 0.00 0.00
4:53 pm 16:53 Cloudy with Light Rain 46 7.8 42 5.6 86 86 ENE 13 20 29.74 1007 5 8 0.03 0.76
5:13 pm 17:13 Cloudy with Light Rain 46 7.8 43 6.1 89 89 ENE 13 20 29.74 1007 4 6 0.02 0.51
5:53 pm 17:53 Cloudy with Mist and Fog 45 7.2 43 6.1 93 93 ENE 14 22 29.74 1007 6 10 0.03 0.76
6:53 pm 18:53 Cloudy 44 6.7 42 5.6 93 93 ENE 15 24 29.75 1007 8 13 0.00 0.00
7:53 pm 19:53 Cloudy with Mist and Fog 43 6.1 42 5.6 97 97 ENE 9 15 29.75 1007 6 10 0.00 0.03
8:53 pm 20:53 Mostly Cloudy 43 6.1 41 5 93 93 E 12 19 29.74 1007 9 14 0.00 0.00
9:53 pm 21:53 Mostly Cloudy 41 5 40 4.4 96 96 ENE 9 15 29.74 1007 8 13 0.00 0.00
10:53 pm 22:53 Mostly Clear 39 3.9 39 3.9 100 100 ENE 9 15 29.73 1007 7 11 0.00 0.00
11:53 pm 23:53 Clear 39 3.9 38 3.3 96 96 ENE 9 15 29.72 1007 8 13 0.00 0.00

Powered by AerisWeather